Location: Bottens
(46.6171°N, 6.6605°E)
Time: 15:14:21
(UTC+00:00)

Cosmos 372 Rocket - Pass Details

Date: 20 June 2021
Orbit: 737 x 768 km, 74.1° (Epoch: 03 August)

Event Time Altitude Azimuth Distance (km) Brightness Sun altitude
Rises 01:01:17 0° 338° (NNW) 3,236 8.0 -17.3°
Reaches altitude 10° 01:03:39 10° 339° (NNW) 2,310 7.2 -17.1°
Maximum altitude 01:08:55 87° 70° (ENE) 774 4.0 -16.8°
Enters shadow 01:13:07 16° 158° (SSE) 1,905 5.6 -16.5°
